Location: Passau
(48.5830°N, 13.4830°E)
Time: 22:13:22
(UTC+02:00)

N. Korean satellite - Pass Details

Date: 05 October 2021
Orbit: 450 x 495 km, 97.3° (Epoch: 25 October)

Event Time Altitude Azimuth Distance (km) Brightness Sun altitude
Rises 05:31:22 0° 27° (NNE) 2,562 10.8 -17.3°
Reaches altitude 10° 05:33:56 10° 46° (NE) 1,683 10.2 -16.8°
Maximum altitude 05:36:31 18° 92° (E) 1,247 9.6 -16.4°
Drops below altitude 10° 05:39:07 10° 138° (SE) 1,685 9.7 -16.0°
Sets 05:41:41 0° 157° (SSE) 2,565 10.4 -15.6°
